Content
SEND FEEDBACK

Daily
Averages
Monthly
Summary
Spain

A CORUŅA - DOWNTOWN, SPAIN


Home > Europe > Spain
Elevation: 220 feet     Latitude: 43 22N     Longitude: 008 25W

WEATHER
 
SELECT A DAY
Number of Records: 270,119;   Date Range: 7/1/96 - 8/12/14
 
SHARE

PRINT THIS DATA

[ ← Previous Day ]
WEATHER ALMANAC - FEBRUARY 18, 2013
[ Next Day → ]
[ °C ]   °F
Weather ElementAverageHighLow
Temperature53.8 °F62.6 °F (2:00 pm)46.4 °F (6:00 am)
Dewpoint44.5 °F50 °F (12:30 am)39.2 °F (4:30 pm)
Humidity73.1 %100 % (6:30 am)42 % (4:30 pm)
Barometer29.79 in29.83 in (9:00 am)29.77 in (12:30 am)
Wind Speed5.3 mph12.7 mph (12:30 pm)
Weather ElementAverage
Visibility6.2 mi
Wind DirectionESE (113.6 °)

Weather ElementTotal
Precipitation---
Heating Degree Days10.5 (Base 65)
Growing Degree Days4.5 (Base 50)
Averaged from 39 records on February 18, 2013
WEATHER CONDITIONS BREAKOUT
WIND DIRECTION BREAKOUT
WEATHER BY HOUR - FEBRUARY 18, 2013
[ °C ]   °F
Local TimeTemperatureDewpointHumidityBarometerVisibilityWind DirectionWind SpeedGust SpeedPrecipitationEventsConditions
12:30 AM51.8 °F50.0 °F94 %29.77 in6.2 miSSE (150°)5.8 mphScattered Clouds
1:00 AM51.8 °F48.2 °F88 %29.77 in6.2 miSSE (160°)6.9 mphScattered Clouds
5:30 AM48.2 °F46.4 °F93 %29.80 inSouth (170°)4.6 mphClear
6:00 AM46.4 °F44.6 °F93 %29.80 in6.2 miVariable1.2 mphScattered Clouds
6:30 AM46.4 °F46.4 °F100 %29.80 in6.2 miSE (140°)5.8 mphMostly Cloudy
7:00 AM48.2 °F46.4 °F93 %29.80 in6.2 miSSE (150°)4.6 mphScattered Clouds
7:30 AM46.4 °F44.6 °F93 %29.80 in6.2 miSSE (160°)3.5 mphScattered Clouds
8:00 AM46.4 °F44.6 °F93 %29.80 in6.2 miSSE (150°)4.6 mphScattered Clouds
8:30 AM46.4 °F44.6 °F93 %29.80 in6.2 miSSE (160°)5.8 mphScattered Clouds
9:00 AM48.2 °F46.4 °F93 %29.83 in6.2 miSE (140°)8.1 mphScattered Clouds
9:30 AM48.2 °F44.6 °F87 %29.83 in6.2 miSSE (160°)8.1 mphScattered Clouds
10:00 AM50.0 °F44.6 °F82 %29.83 inSouth (180°)8.1 mphClear
10:30 AM50.0 °F46.4 °F87 %29.80 inSouth (170°)3.5 mphClear
11:00 AM51.8 °F44.6 °F76 %29.80 inSSE (150°)6.9 mphClear
11:30 AM51.8 °F46.4 °F82 %29.80 inSSE (150°)5.8 mphClear
12:00 PM55.4 °F46.4 °F72 %29.80 inSSE (160°)11.5 mphClear
12:30 PM57.2 °F46.4 °F67 %29.83 inSSE (160°)12.7 mphClear
1:00 PM57.2 °F46.4 °F67 %29.80 inSSE (160°)9.2 mphClear
1:30 PM60.8 °F46.4 °F59 %29.80 in6.2 miSSE (150°)6.9 mphPartly Cloudy
2:00 PM62.6 °F46.4 °F55 %29.80 in6.2 miSouth (170°)9.2 mphPartly Cloudy
2:30 PM60.8 °F42.8 °F52 %29.80 in6.2 miSSE (160°)10.4 mphPartly Cloudy
3:00 PM62.6 °F44.6 °F52 %29.80 in6.2 miSouth (170°)10.4 mphPartly Cloudy
3:30 PM62.6 °F42.8 °F48 %29.77 in6.2 miSSE (160°)9.2 mphPartly Cloudy
4:00 PM62.6 °F41.0 °F45 %29.77 in6.2 miSSE (150°)6.9 mphPartly Cloudy
4:30 PM62.6 °F39.2 °F42 %29.77 in6.2 miSSE (160°)8.1 mphPartly Cloudy
5:00 PM62.6 °F41.0 °F45 %29.77 in6.2 miSE (130°)6.9 mphPartly Cloudy
5:30 PM60.8 °F39.2 °F45 %29.77 in6.2 miSSE (150°)6.9 mphPartly Cloudy
6:00 PM59.0 °F39.2 °F48 %29.77 in6.2 miCalmPartly Cloudy
6:30 PM59.0 °F41.0 °F51 %29.77 in6.2 miCalmPartly Cloudy
7:00 PM57.2 °F42.8 °F59 %29.77 in6.2 miCalmPartly Cloudy
7:30 PM53.6 °F44.6 °F72 %29.77 in6.2 miVariable2.3 mphPartly Cloudy
8:00 PM53.6 °F44.6 °F72 %29.77 in6.2 miCalmPartly Cloudy
8:30 PM51.8 °F44.6 °F76 %29.77 in6.2 miSouth (190°)3.5 mphPartly Cloudy
9:00 PM51.8 °F42.8 °F71 %29.77 in6.2 miVariable2.3 mphPartly Cloudy
9:30 PM51.8 °F44.6 °F76 %29.77 in6.2 miVariable1.2 mphPartly Cloudy
10:00 PM50.0 °F44.6 °F82 %29.77 inVariable2.3 mphClear
10:30 PM50.0 °F44.6 °F82 %29.80 inCalmClear
11:00 PM50.0 °F44.6 °F82 %29.77 inCalmClear
11:30 PM50.0 °F44.6 °F82 %29.80 inSouth (170°)4.6 mphClear
Hourly data recorded from LECO, located miles away from A Coruņa - Downtown, Spain







STORIES FROM OUR PARTNERS